Location: *
(50.2903°S, 172.5375°W)
Time: 04:02:42
(UTC+00:00)

Resurs 1-4 Rocket - Pass Details

Date: 22 February 2020
Orbit: 800 x 814 km, 98.6° (Epoch: 04 April)

Event Time Altitude Azimuth Distance (km) Brightness Sun altitude
Exits shadow 10:47:17 24° 106° (ESE) 1,661 3.7 -28.2°
Maximum altitude 10:48:10 25° 122° (ESE) 1,619 3.8 -28.2°
Drops below altitude 10° 10:52:24 10° 174° (S) 2,423 5.4 -28.4°
Sets 10:55:07 0° 187° (S) 3,359 6.6 -28.5°
